Flag for Austria Weather past 2 weeks in Kapfenberg, Styria, Austria

Now
43 °F

Partly cloudy.


Feels Like: 38 °F
Forecast: 34 / 44 °F
Wind: 8 mph from Northwest

Location: Zeltweg

Current Time: Mar 27, 2015 at 11:12:38 PM

Latest Report: Mar 27, 2015 at 9:50 PM


Visibility: 15 mi

Pressure: 30.04 "Hg

Humidity: 42%

Dew point: 21 °F

Location of KapfenbergLocation

Historic Weather in Kapfenberg — Graph

°F

Kapfenberg temperature yesterday

Maximum temperature yesterday: 55 °F (at 3:50 PM)
Minimum temperature yesterday: 43 °F (at 3:50 AM)
Average temperature yesterday: 48 °F

Past Weeks' High & Low Weather Summary

 TemperatureHumidityPressure
High61 °F (Mar 21, 2:50 PM)100% (Mar 14, 5:50 AM)30.45 "Hg (Mar 14, 5:50 AM)
Low21 °F (Mar 14, 5:50 AM)23% (Mar 19, 4:50 PM)29.68 "Hg (Mar 25, 3:50 PM)
Average43 °F64%30.08 "Hg
* Reported Mar 12 9:50 PM — Mar 27 9:50 PM, Kapfenberg, Weather by CustomWeather, © 2015

Note: Actual official high and low records may vary slightly from our data, if they occured in-between our weather recording intervals... More about our weather records

Advertising

Kapfenberg weather history for previous 24 hours

 ConditionsComfort  
Time TempWeatherWind HumidityBarometerVisibility
9:50 PM
Fri, Mar 27
43 °FPartly cloudy.8 mph42%30.04 "Hg16 mi
8:50 PM43 °FPartly cloudy.9 mph49%30.04 "Hg16 mi
7:50 PM43 °FPartly cloudy.14 mph53%30.01 "Hg16 mi
6:50 PM43 °FPartly cloudy.8 mph61%29.98 "Hg16 mi
5:50 PM45 °FBroken clouds.6 mph49%29.95 "Hg16 mi
4:50 PM45 °FBroken clouds.9 mph53%29.95 "Hg16 mi
3:50 PM45 °FBroken clouds.3 mph66%29.92 "Hg19 mi
2:50 PM45 °FBroken clouds.6 mph61%29.92 "Hg19 mi
1:50 PM45 °FBroken clouds.7 mph61%29.92 "Hg19 mi
1:20 PM45 °FBroken clouds.3 mph57%29.92 "Hg19 mi
12:50 PM45 °FBroken clouds.3 mph53%29.92 "Hg19 mi
12:20 PM45 °FBroken clouds.3 mph61%29.92 "Hg19 mi
11:50 AM43 °FBroken clouds.3 mph76%29.89 "Hg19 mi
11:20 AM43 °FBroken clouds.2 mph76%29.89 "Hg19 mi
10:50 AM43 °FBroken clouds.2 mph76%29.89 "Hg19 mi
10:20 AM43 °FBroken clouds.1 mph76%29.89 "Hg19 mi
9:50 AM41 °FBroken clouds.1 mph81%29.86 "Hg12 mi
9:20 AM41 °FBroken clouds.2 mph87%29.86 "Hg12 mi
8:50 AM41 °FBroken clouds.2 mph87%29.86 "Hg12 mi
8:20 AM41 °FLight rain. Partly sunny.1 mph93%29.86 "Hg9 mi
7:50 AM39 °FLight rain. Broken clouds.1 mph93%29.86 "Hg9 mi
7:20 AM39 °FRain. Partly sunny.1 mph100%29.83 "Hg9 mi
6:50 AM39 °FLight rain. More clouds than sun.No wind100%29.83 "Hg9 mi
5:50 AM39 °FLight rain. Mostly cloudy.5 mph100%29.80 "Hg6 mi
4:50 AM41 °FRain. Overcast.No wind93%29.80 "Hg5 mi
Weather by CustomWeather, © 2015

See weather overviewHow to use our weather pages